This is the latest recevied weather packets stored in our database for station/object K4XP. If no packets are shown the sender has not sent any weather packets the latest 10 day(s).
| Time | Temp. | Humidity | Pressure | Rain* | Wind** | Luminosity | Snow |
|---|---|---|---|---|---|---|---|
| 1778180413 | 24.44° C | 70% | 1008.1 hPa | 0 mm | - | - | - |
| 1778180129 | 24.44° C | 67% | 1008.2 hPa | 0 mm | - | - | - |
| 1778179825 | 24.44° C | 70% | 1008.3 hPa | 0 mm | - | - | - |
| 1778179521 | 24.44° C | 69% | 1008.3 hPa | 0 mm | - | - | - |
| 1778179222 | 24.44° C | 70% | 1008.4 hPa | 0 mm | - | - | - |
| 1778178918 | 24.44° C | 68% | 1008.5 hPa | 0 mm | - | - | - |
| 1778178614 | 24.44° C | 69% | 1008.3 hPa | 0 mm | - | - | - |
| 1778178330 | 23.89° C | 72% | 1008.4 hPa | 0 mm | - | - | - |
| 1778178026 | 23.89° C | 70% | 1008.4 hPa | 0 mm | - | - | - |
| 1778177723 | 23.89° C | 72% | 1008.4 hPa | 0 mm | - | - | - |
| 1778177417 | 23.33° C | 72% | 1008.4 hPa | 0 mm | - | - | - |
| 1778177117 | 23.33° C | 73% | 1008.4 hPa | 0 mm | - | - | - |
| 1778176814 | 23.33° C | 71% | 1008.5 hPa | 0 mm | - | - | - |
| 1778176510 | 23.33° C | 74% | 1008.4 hPa | 0 mm | - | - | - |
| 1778176227 | 23.33° C | 73% | 1008.4 hPa | 0 mm | - | - | - |
| 1778175921 | 23.33° C | 74% | 1008.4 hPa | 0 mm | - | - | - |
| 1778175616 | 23.33° C | 75% | 1008.3 hPa | 0 mm | - | - | - |
| 1778175331 | 22.78° C | 77% | 1008.4 hPa | 0 mm | - | - | - |
| 1778175026 | 22.78° C | 77% | 1008.5 hPa | 0 mm | - | - | - |
| 1778174725 | 22.78° C | 77% | 1008.7 hPa | 0 mm | - | - | - |
| 1778174420 | 22.22° C | 79% | 1008.6 hPa | 0 mm | - | - | - |
| 1778174114 | 21.67° C | 83% | 1008.6 hPa | 0 mm | - | - | - |
| 1778173830 | 21.67° C | 80% | 1008.7 hPa | 0 mm | - | - | - |
| 1778173527 | 21.67° C | 82% | 1008.8 hPa | 0 mm | - | - | - |
| 1778173224 | 21.11° C | 82% | 1008.9 hPa | 0 mm | - | - | - |
* Rain latest hour (hover to see other rain measurements)
** Current wind speed in m/s (hover to see current wind gust speed)